CW8014 Weather Reports


Display with metric or nautical units.
time (UTC)temp
F
wind
direction
speed
MPH
gust
MPH
rain 1hr
in
rain 24hr
in
rain mn
in
humidity
%
barometer
mb
20260510220410 43 360 2.0 5.0 0.00 0.00 0.00 82 1010.0
20260510215410 43 337 2.0 4.0 0.00 0.00 0.00 82 1010.2
20260510214410 43 340 3.0 5.0 0.00 0.00 0.00 82 1010.4
20260510213410 43 339 2.0 4.0 0.00 0.00 0.00 82 1010.5
20260510212410 44 360 3.0 5.0 0.00 0.00 0.00 82 1010.5
20260510211410 44 9 3.0 5.0 0.00 0.00 0.00 81 1010.8
20260510210410 44 360 3.0 6.0 0.00 0.00 0.00 81 1010.8
20260510205410 45 5 2.0 6.0 0.00 0.00 0.00 80 1011.0
20260510204410 45 355 3.0 6.0 0.00 0.00 0.00 80 1011.0
20260510203410 45 338 5.0 12.0 0.00 0.00 0.00 79 1011.0
20260510202410 46 336 4.0 8.0 0.00 0.00 0.00 80 1011.1
20260510201410 46 30 4.0 9.0 0.00 0.00 0.00 80 1011.2
20260510195410 46 5 4.0 8.0 0.00 0.00 0.00 80 1011.3
20260510194410 46 351 5.0 8.0 0.00 0.00 0.00 79 1011.4
20260510193410 46 347 5.0 10.0 0.00 0.00 0.00 78 1011.6
20260510192410 47 334 5.0 9.0 0.00 0.00 0.00 78 1011.5
20260510190410 48 351 5.0 11.0 0.00 0.00 0.00 75 1011.6
20260510185410 49 348 8.0 14.0 0.00 0.00 0.00 75 1011.6
20260510184413 49 351 7.0 13.0 0.00 0.00 0.00 74 1011.5
20260510183413 49 320 6.0 12.0 0.00 0.00 0.00 75 1011.7
20260510182410 50 14 7.0 14.0 0.00 0.00 0.00 75 1011.7
20260510181410 50 327 9.0 17.0 0.00 0.00 0.00 75 1011.8
20260510175410 51 350 8.0 14.0 0.00 0.00 0.00 74 1011.9
20260510174410 51 5 9.0 15.0 0.00 0.00 0.00 74 1011.8
20260510173410 51 341 6.0 12.0 0.00 0.00 0.00 74 1011.9
20260510172409 51 309 10.0 16.0 0.00 0.00 0.00 73 1012.0
20260510171410 52 330 9.0 15.0 0.00 0.00 0.00 72 1012.0
20260510170410 53 360 10.0 16.0 0.00 0.00 0.00 72 1012.1
20260510165409 53 360 8.0 12.0 0.00 0.00 0.00 72 1012.1
20260510164410 53 330 10.0 15.0 0.00 0.00 0.00 71 1012.2
20260510163410 54 11 9.0 16.0 0.00 0.00 0.00 71 1012.2
20260510162410 54 338 10.0 18.0 0.00 0.00 0.00 72 1012.4
20260510161410 54 337 11.0 18.0 0.00 0.00 0.00 72 1012.5
20260510160412 55 11 10.0 18.0 0.00 0.00 0.00 72 1012.4
20260510155409 55 345 11.0 17.0 0.00 0.00 0.00 70 1012.6
20260510154409 55 324 9.0 15.0 0.00 0.00 0.00 70 1012.7
20260510153410 56 344 9.0 15.0 0.00 0.00 0.00 68 1012.8
20260510152410 56 332 12.0 18.0 0.00 0.00 0.00 70 1012.8
20260510151413 57 340 12.0 17.0 0.00 0.00 0.00 68 1012.8
20260510150410 57 17 10.0 15.0 0.00 0.00 0.00 67 1012.8
20260510145410 59 346 8.0 16.0 0.00 0.00 0.00 66 1012.9
20260510144410 59 19 8.0 14.0 0.00 0.00 0.00 67 1012.9
20260510143410 59 5 13.0 18.0 0.00 0.00 0.00 66 1012.9
20260510142501 59 5 11.0 21.0 0.00 0.00 0.00 67 1013.0
20260510142401 58 334 9.0 15.0 0.00 0.00 0.00 67 1013.0
20260510141401 60 360 8.0 13.0 0.00 0.00 0.00 66 1013.1
20260510135404 60 355 12.0 21.0 0.00 0.00 0.00 65 1013.1
20260510134404 61 20 10.0 17.0 0.00 0.00 0.00 64 1013.2
20260510133401 61 327 11.0 17.0 0.00 0.00 0.00 63 1013.2
20260510132401 61 314 9.0 17.0 0.00 0.00 0.00 64 1013.2
20260510131401 62 322 10.0 16.0 0.00 0.00 0.00 62 1013.3
20260510130401 62 360 12.0 18.0 0.00 0.00 0.00 62 1013.4
20260510125401 62 329 8.0 14.0 0.00 0.00 0.00 64 1013.5
20260510124401 62 348 11.0 17.0 0.00 0.00 0.00 62 1013.6
20260510123402 62 355 7.0 16.0 0.00 0.00 0.00 60 1013.6
20260510122402 62 342 7.0 18.0 0.00 0.00 0.00 62 1013.8
20260510121405 62 292 9.0 15.0 0.00 0.00 0.00 60 1013.8
20260510120402 62 320 7.0 17.0 0.00 0.00 0.00 63 1013.9
20260510115402 62 11 10.0 19.0 0.00 0.00 0.00 59 1013.9
20260510114402 62 303 8.0 17.0 0.00 0.00 0.00 60 1013.9
20260510113402 62 355 10.0 17.0 0.00 0.00 0.00 59 1013.9
20260510112402 62 360 11.0 15.0 0.00 0.00 0.00 61 1014.0
20260510111402 61 360 11.0 18.0 0.00 0.00 0.00 62 1013.9
20260510110402 62 17 11.0 17.0 0.00 0.00 0.00 63 1014.1
20260510105403 62 19 8.0 15.0 0.00 0.00 0.00 61 1014.0
20260510103402 62 355 9.0 15.0 0.00 0.00 0.00 62 1013.9
20260510102402 62 321 12.0 17.0 0.00 0.00 0.00 61 1014.0
20260510101403 62 317 8.0 16.0 0.00 0.00 0.00 62 1014.0
20260510100403 62 322 7.0 15.0 0.00 0.00 0.00 66 1014.0
20260510094402 61 344 6.0 11.0 0.00 0.00 0.00 69 1014.1
20260510093403 61 348 8.0 13.0 0.00 0.00 0.00 68 1014.1
20260510092403 61 327 7.0 14.0 0.00 0.00 0.00 69 1014.2
20260510091403 60 346 7.0 15.0 0.00 0.00 0.00 70 1014.2
20260510090403 60 32 9.0 14.0 0.00 0.00 0.00 70 1014.2
20260510085406 60 336 8.0 12.0 0.00 0.00 0.00 72 1014.2
20260510084406 59 5 8.0 14.0 0.00 0.00 0.00 73 1014.2
20260510083403 59 9 9.0 17.0 0.00 0.00 0.00 73 1014.4
20260510082403 60 24 7.0 15.0 0.00 0.00 0.00 75 1014.3
20260510081403 59 24 7.0 11.0 0.00 0.00 0.00 78 1014.5
20260510074403 58 339 9.0 15.0 0.00 0.00 0.00 81 1014.3
20260510073403 57 333 6.0 11.0 0.00 0.00 0.00 82 1014.4
20260510072404 56 334 7.0 11.0 0.00 0.00 0.00 83 1014.3
20260510071407 56 360 5.0 10.0 0.00 0.00 0.00 83 1014.3
20260510070404 56 323 5.0 11.0 0.00 0.00 0.00 84 1014.4
20260510065404 55 336 5.0 10.0 0.00 0.00 0.00 85 1014.4
20260510064404 55 338 3.0 5.0 0.00 0.00 0.00 85 1014.4
20260510063404 54 46 1.0 6.0 0.00 0.00 0.00 86 1014.5
20260510062404 53 9 1.0 4.0 0.00 0.00 0.00 89 1014.6
20260510061404 53 5 1.0 3.0 0.00 0.00 0.00 91 1014.6
20260510060407 51 355 1.0 3.0 0.00 0.00 0.00 92 1014.6
20260510055405 51 347 2.0 4.0 0.00 0.00 0.00 93 1014.6
20260510054404 50 327 2.0 5.0 0.00 0.00 0.00 94 1014.5
20260510053404 49 360 3.0 5.0 0.00 0.00 0.00 95 1014.4
20260510052404 48 11 4.0 7.0 0.00 0.00 0.00 95 1014.4
20260510051404 48 331 3.0 4.0 0.00 0.00 0.00 95 1014.5
20260510050404 47 337 2.0 4.0 0.00 0.00 0.00 95 1014.5
20260510045405 46 337 2.0 3.0 0.00 0.00 0.00 95 1014.5
20260510044405 45 338 2.0 3.0 0.00 0.00 0.00 95 1014.6
20260510042408 45 360 0.0 1.0 0.00 0.00 0.00 95 1014.6
20260510041405 44 360 0.0 1.0 0.00 0.00 0.00 95 1014.5
20260510040405 44 344 0.0 1.0 0.00 0.00 0.00 95 1014.5
20260510035405 44 5 0.0 0.0 0.00 0.00 0.00 94 1014.6
20260510034408 44 5 0.0 1.0 0.00 0.00 0.00 94 1014.4
20260510032405 44 5 1.0 2.0 0.00 0.00 0.00 94 1014.5
20260510031405 44 5 1.0 2.0 0.00 0.00 0.00 94 1014.6
20260510030405 44 5 1.0 2.0 0.00 0.00 0.00 94 1014.7
20260510025406 45 5 1.0 2.0 0.00 0.00 0.00 94 1014.9
20260510024406 45 5 1.0 2.0 0.00 0.00 0.00 93 1014.9
20260510023405 46 5 1.0 2.0 0.00 0.00 0.00 93 1014.8
20260510021406 47 5 0.0 1.0 0.00 0.00 0.00 93 1015.0
20260510020408 47 5 0.0 2.0 0.00 0.00 0.00 93 1015.1
20260510015406 46 5 1.0 2.0 0.00 0.00 0.00 93 1015.1
20260510014406 46 5 2.0 4.0 0.00 0.00 0.00 93 1015.1
20260510013406 46 5 2.0 3.0 0.00 0.00 0.00 93 1015.2
20260510012406 46 5 2.0 4.0 0.00 0.00 0.00 92 1015.1
20260510011406 47 46 1.0 2.0 0.00 0.00 0.00 92 1015.0
20260510010406 47 46 1.0 2.0 0.00 0.00 0.00 92 1015.1
20260510005407 47 46 0.0 0.0 0.00 0.00 0.00 92 1015.1
20260510004406 48 46 1.0 2.0 0.00 0.00 0.00 91 1015.2
20260510003406 48 46 1.0 2.0 0.00 0.00 0.00 91 1015.2
20260510002406 48 46 1.0 2.0 0.00 0.00 0.00 91 1015.2
20260510001406 49 46 0.0 0.0 0.00 0.00 0.00 90 1015.4
20260510000406 49 46 0.0 0.0 0.00 0.00 0.00 89 1015.6
20260509235407 50 46 0.0 1.0 0.00 0.00 0.00 88 1015.8
20260509234406 50 46 1.0 2.0 0.00 0.00 0.00 88 1015.8
20260509232406 51 46 1.0 2.0 0.00 0.00 0.00 87 1016.0
20260509231407 51 46 1.0 3.0 0.00 0.00 0.00 86 1016.0
20260509230407 51 55 0.0 2.0 0.00 0.00 0.00 85 1016.0
20260509225407 52 55 1.0 2.0 0.00 0.00 0.00 84 1015.9
20260509224407 53 84 1.0 2.0 0.00 0.00 0.00 83 1016.1
20260509223407 54 84 1.0 2.0 0.00 0.00 0.00 81 1016.1
20260509222407 55 84 0.0 2.0 0.00 0.00 0.00 80 1016.3
20260509221410 55 84 1.0 3.0 0.00 0.00 0.00 79 1016.3